FW9372 Weather Reports


Display with metric or nautical units.
time (UTC)temp
F
wind
direction
speed
MPH
gust
MPH
rain 1hr
in
rain 24hr
in
rain mn
in
humidity
%
barometer
mb
20260902053126 73 0 0.0 0.0 0.00 0.00 0.00 98 1015.2
20260902051605 73 0 0.0 0.0 0.00 0.00 0.00 98 1015.2
20260902050122 73 0 0.0 0.0 0.00 0.00 0.00 98 1015.1
20260902044611 73 0 0.0 0.0 0.00 0.00 0.00 97 1015.0
20260902043107 73 0 0.0 0.0 0.00 0.00 0.00 98 1014.9
20260902041615 73 0 0.0 0.0 0.00 0.00 0.00 97 1015.1
20260902040109 74 0 0.0 0.0 0.00 0.00 0.00 97 1015.2
20260902034605 74 0 0.0 0.0 0.00 0.00 0.00 97 1015.2
20260902033114 74 0 0.0 0.0 0.00 0.00 0.00 96 1015.2
20260902031608 74 0 0.0 0.0 0.00 0.00 0.00 96 1015.3
20260902030115 74 0 0.0 0.0 0.00 0.00 0.00 96 1015.4
20260902024608 74 0 0.0 0.0 0.00 0.00 0.00 95 1015.4
20260902023106 75 0 0.0 0.0 0.00 0.00 0.00 95 1015.4
20260902021605 75 0 0.0 0.0 0.00 0.00 0.00 93 1015.2
20260902020106 75 0 0.0 0.0 0.00 0.00 0.00 93 1015.1
20260902014606 76 0 0.0 0.0 0.00 0.00 0.00 93 1015.0
20260902013104 76 0 0.0 0.0 0.00 0.00 0.00 92 1014.9
20260902011604 77 0 0.0 0.0 0.00 0.00 0.00 92 1014.7
20260902010114 77 0 0.0 0.0 0.00 0.00 0.00 91 1014.6
20260902004607 78 0 0.0 0.0 0.00 0.00 0.00 90 1014.4
20260902003110 79 0 0.0 0.0 0.00 0.00 0.00 90 1014.3
20260902001637 79 0 0.0 0.0 0.00 0.00 0.00 89 1014.3
20260902000103 81 0 0.0 0.0 0.00 0.00 0.00 88 1014.5
20260901234603 82 0 0.0 0.0 0.00 0.00 0.00 87 1014.5
20260901233107 84 0 0.0 0.0 0.00 0.00 0.00 84 1014.7
20260901231605 87 0 0.0 0.0 0.00 0.00 0.00 79 1014.7
20260901230104 88 0 0.0 0.0 0.00 0.00 0.00 79 1014.6
20260901224619 89 0 0.0 0.0 0.00 0.00 0.00 78 1014.6
20260901223105 91 0 0.0 0.0 0.00 0.00 0.00 76 1014.6
20260901221605 92 0 0.0 0.0 0.00 0.00 0.00 73 1014.5
20260901220107 94 0 0.0 0.0 0.00 0.00 0.00 70 1014.5
20260901214605 95 0 0.0 0.0 0.00 0.00 0.00 64 1014.4
20260901213122 95 0 0.0 0.0 0.00 0.00 0.00 67 1014.4
20260901211604 96 0 0.0 0.0 0.00 0.00 0.00 64 1014.6
20260901210118 95 0 0.0 0.0 0.00 0.00 0.00 56 1014.6
20260901204606 95 0 0.0 0.0 0.00 0.00 0.00 59 1014.8
20260901203105 96 0 0.0 0.0 0.00 0.00 0.00 58 1015.0
20260901201608 95 0 0.0 0.0 0.00 0.00 0.00 57 1015.2
20260901200116 95 0 0.0 0.0 0.00 0.00 0.00 58 1015.2
20260901194604 94 0 0.0 1.0 0.00 0.00 0.00 62 1015.4
20260901193111 94 0 0.0 0.0 0.00 0.00 0.00 57 1015.4
20260901191605 94 0 0.0 3.0 0.00 0.00 0.00 59 1015.7
20260901190109 94 0 0.0 8.0 0.00 0.00 0.00 61 1015.9
20260901184610 93 0 0.0 6.0 0.00 0.00 0.00 62 1016.1
20260901183112 94 0 0.0 0.0 0.00 0.00 0.00 62 1016.1
20260901181609 93 0 0.0 0.0 0.00 0.00 0.00 61 1016.3
20260901180107 92 0 0.0 5.0 0.00 0.00 0.00 63 1016.6
20260901174607 92 0 0.0 1.0 0.00 0.00 0.00 65 1016.6
20260901173106 92 0 0.0 1.0 0.00 0.00 0.00 66 1016.7
20260901171604 91 0 0.0 3.0 0.00 0.00 0.00 67 1016.8
20260901170109 91 248 0.0 11.0 0.00 0.00 0.00 67 1017.0
20260901164617 90 0 1.0 10.0 0.00 0.00 0.00 69 1017.0
20260901163119 90 0 0.0 1.0 0.00 0.00 0.00 71 1017.1
20260901161627 89 213 0.0 2.0 0.00 0.00 0.00 72 1017.3
20260901160104 88 269 0.0 2.0 0.00 0.00 0.00 73 1017.3
20260901154620 87 0 0.0 8.0 0.00 0.00 0.00 77 1017.3
20260901153110 87 250 0.0 2.0 0.00 0.00 0.00 77 1017.3
20260901151607 86 0 0.0 1.0 0.00 0.00 0.00 77 1017.3
20260901150121 84 0 0.0 4.0 0.00 0.00 0.00 79 1017.4
20260901144606 83 0 0.0 0.0 0.00 0.00 0.00 80 1017.7
20260901143108 83 0 0.0 3.0 0.00 0.00 0.00 81 1017.6
20260901141609 81 0 0.0 1.0 0.00 0.00 0.00 85 1017.7
20260901140106 78 0 0.0 0.0 0.00 0.00 0.00 94 1017.6
20260901134604 76 0 0.0 0.0 0.00 0.00 0.00 100 1017.6
20260901133106 74 0 0.0 0.0 0.00 0.00 0.00 100 1017.7
20260901131606 73 0 0.0 0.0 0.00 0.00 0.00 100 1017.8
20260901130108 71 0 0.0 0.0 0.00 0.00 0.00 100 1017.8
20260901124606 70 0 0.0 0.0 0.00 0.00 0.00 100 1017.6
20260901123106 69 0 0.0 0.0 0.00 0.00 0.00 99 1017.6
20260901121613 68 0 0.0 0.0 0.00 0.00 0.00 99 1017.5
20260901120114 68 0 0.0 0.0 0.00 0.00 0.00 99 1017.4
20260901114609 67 0 0.0 0.0 0.00 0.00 0.00 99 1017.3
20260901113106 67 0 0.0 0.0 0.00 0.00 0.00 99 1017.1
20260901111610 67 0 0.0 0.0 0.00 0.00 0.00 99 1016.9
20260901110105 67 0 0.0 0.0 0.00 0.00 0.00 99 1016.7
20260901104603 67 0 0.0 0.0 0.00 0.00 0.00 99 1016.6
20260901103108 67 0 0.0 0.0 0.00 0.00 0.00 99 1016.4
20260901101605 67 0 0.0 0.0 0.00 0.00 0.00 99 1016.3
20260901100106 67 0 0.0 0.0 0.00 0.00 0.00 99 1016.3
20260901094607 67 0 0.0 0.0 0.00 0.00 0.00 99 1016.0
20260901093104 68 0 0.0 0.0 0.00 0.00 0.00 99 1015.7
20260901091621 68 0 0.0 0.0 0.00 0.00 0.00 99 1015.7
20260901090106 68 0 0.0 0.0 0.00 0.00 0.00 99 1015.5
20260901084609 68 0 0.0 0.0 0.00 0.00 0.00 99 1015.5
20260901083106 68 0 0.0 0.0 0.00 0.00 0.00 99 1015.6
20260901081605 68 0 0.0 0.0 0.00 0.00 0.00 99 1015.3
20260901080108 69 0 0.0 0.0 0.00 0.00 0.00 98 1015.4
20260901074605 69 0 0.0 0.0 0.00 0.00 0.00 99 1015.4
20260901073108 69 0 0.0 0.0 0.00 0.00 0.00 98 1015.5
20260901071607 70 0 0.0 0.0 0.00 0.00 0.00 99 1015.4
20260901070114 70 0 0.0 0.0 0.00 0.00 0.00 98 1015.6
20260901064615 70 0 0.0 0.0 0.00 0.00 0.00 99 1015.7
20260901063109 70 0 0.0 0.0 0.00 0.00 0.00 98 1015.9
20260901061606 70 0 0.0 0.0 0.00 0.00 0.00 98 1016.0
20260901060107 70 0 0.0 0.0 0.00 0.00 0.00 98 1015.9
20260901054604 71 0 0.0 0.0 0.00 0.00 0.00 98 1016.0